If you wish to contribute or participate in the discussions about articles you are invited to join SKYbrary as a registered user

 Actions

Imperatriz Airport

From SKYbrary Wiki

SBIZ
Airport
ICAO: SBIZ – IATA: IMP
Summary
Name Imperatriz Airport
Region South America and Caribbean
Territory Brazil BR.gif
Location Imperatriz, Maranhao
Serving Imperatriz
Elevation 131.369 m
431 ft131.369 m
Coordinates 5° 31' 50.02" S, 47° 27' 29.99" W
Runways
Designator Length Width Surface ROPS
7/25 1798 m5,898.95 ft
45 m147.638 ft
ASP yes/yes


METAR
Observation SBIZ 231200Z 09004KT 9999 BKN018 27/22 Q1017
Station Imperatriz
Date/Time 23 August 2019 12:00:00
Wind direction 90°
Wind speed 04 kts
Lowest cloud amount broken clouds
Temperature 27°C
Dew point 22°C
Humidity 74%
QNH 1017 hPa
Weather condition n/a

Imperatriz-Prefeito Renato Moreira Airport is the airport serving Imperatriz, Brazil.

Climatology

Tropical savanna climate (Köppen climate classification Aw)

Maps

Terrain

Loading map...

Airport Layout

Loading map...


Accidents & Serious Incidents at or in vicinity of SBIZ

None on SKYbrary